Location: Berg
(47.2344°N, 9.5296°E)
Time: 01:55:24
(UTC+00:00)

BEESAT 2 - Pass Details

Date: 30 November 2021
Orbit: 498 x 513 km, 64.9° (Epoch: 24 January)

Event Time Altitude Azimuth Distance (km) Brightness Sun altitude
Exits shadow 05:29:52 - 341° (NNW) 1,958 ? -12.6°
Reaches altitude 10° 05:30:30 10° 346° (NNW) 1,753 ? -12.5°
Maximum altitude 05:33:35 22° 38° (NE) 1,183 ? -12.0°
Drops below altitude 10° 05:36:39 10° 90° (E) 1,744 ? -11.5°
Sets 05:39:12 0° 106° (ESE) 2,625 ? -11.1°
